Regional Weather Roundup
Issued by NWS

Home | Current Version | Previous Version | Graphics & Text | Print | Product List | Glossary On
Versions: 1 2 3 4 5 6 7 8 9 10 11 12 13 14 15 16 17 18 19 20 21 22 23 24 25 26 27 28 29 30 31 32 33 34 35 36 37 38 39 40 41 42 43 44 45 46 47 48 49 50
000
ASUS45 KCYS 052310
RWRWY

WYOMING REGIONAL WEATHER ROUNDUP
NATIONAL WEATHER SERVICE CHEYENNE WY
400 PM MST THU MAR 05 2015

NOTE:  "FAIR" INDICATES FEW OR NO CLOUDS BELOW 12,000 FEET
WITH NO SIGNIFICANT WEATHER AND/OR OBSTRUCTIONS TO VISIBILITY.

WYZ001-060000-
YELLOWSTONE NATIONAL PARK

CITY           SKY/WX    TMP DP  RH WIND       PRES   REMARKS
LK YELLOWSTONE   N/A     32   7  35 VRB3      30.27S
W YELLOWSTONE  NOT AVBL

$$
WYZ002>013-054>058-071-098>099-060000-
NORTHERN WYOMING

CITY           SKY/WX    TMP DP  RH WIND       PRES   REMARKS
JACKSON        SUNNY     30  12  47 CALM      30.30F
CODY           FAIR      43  21  42 E10       30.15R
GREYBULL       FAIR      41  14  33 S8        30.19S
WORLAND        FAIR      41  12  30 VRB5      30.19R
SHERIDAN       FAIR      41  22  46 SW7       30.14S
BUFFALO        FAIR      40  10  29 S3        30.15R
GILLETTE       FAIR      42  17  36 NW12      30.12R
HULETT         FAIR      41  16  36 W8        30.12S
NEWCASTLE      FAIR      41  12  30 NW17      30.14S

$$
WYZ014>020-022>026-101>103-060000-
CENTRAL WYOMING

CITY           SKY/WX    TMP DP  RH WIND       PRES   REMARKS
BIG PINEY      FAIR      40   8  26 N18       30.27R WCI  31
PINEDALE       FAIR      34  14  44 W14       30.27R WCI  24
DUBOIS         FAIR      34  10  37 NW21G26   30.19R WCI  22
LANDER         FAIR      26  13  57 CALM      30.19S
RIVERTON       FAIR      20  10  65 CALM      30.21S
CASPER         FAIR      32  21  64 SW18      30.18F WCI  20
DOUGLAS        FAIR      36  21  54 NW9       30.18S WCI  29

$$
WYZ021-027>030-104>119-060000-
SOUTHERN WYOMING

CITY           SKY/WX    TMP DP  RH WIND       PRES   REMARKS
EVANSTON       FAIR      34  17  50 SW17      30.35R WCI  23
KEMMERER       FAIR      36  14  41 W20G25    30.31S WCI  25
FORT BRIDGER   FAIR      35  19  52 W18       30.36R WCI  24
ROCK SPRINGS   FAIR      35  21  56 SW18      30.28R WCI  24
DIXON          FAIR      35  15  44 SW8       30.35R WCI  29
RAWLINS        FAIR      31  17  56 W23G31    30.23R WCI  18
SARATOGA       FAIR      30  19  64 W14       30.28S WCI  20
LARAMIE        FAIR      33  12  41 W10       30.18R WCI  25
CHEYENNE       FAIR      41  14  33 NW13G20   30.17R
TORRINGTON     FAIR      43  14  31 W10       30.18S
PINE BLUFFS    FAIR      41  16  36 NW23G29   30.19R

$$



USA.gov is the U.S. government's official web portal to all federal, state and local government web resources and services.